Location: G�ppingen
(48.7089°N, 9.6563°E)
Time: 00:06:17
(UTC+02:00)

LilacSat-2 - Pass Details

Date: 26 March 2019
Orbit: 512 x 537 km, 97.5° (Epoch: 21 April)

Event Time Altitude Azimuth Distance (km) Brightness Sun altitude
Rises 05:26:21 0° 26° (NNE) 2,643 ? -8.4°
Reaches altitude 10° 05:28:55 10° 44° (NE) 1,748 ? -8.0°
Maximum altitude 05:31:42 20° 92° (E) 1,251 ? -7.5°
Drops below altitude 10° 05:34:28 10° 140° (SE) 1,735 ? -7.1°
Sets 05:37:00 0° 159° (SSE) 2,616 ? -6.7°
